Theta_e
316 317 317 317 317 318 319 319 319 319 321 322 323 323 323 323 323 323 323 324 324 324 324 324 324 325 325 326 326 326 326 326 327 326 325 326 327 328 328 328 328 328 328 328 328 328 328 328 328 327 326 326 326 326 326 326 326 326 326 325 325 325 325 324 323 323 324 324 324
316 316 316 314 315 316 318 318 318 319 320 321 322 323 323 323 322 323 323 324 323 323 324 324 324 324 325 325 325 325 325 325 326 326 325 326 327 327 327 327 328 327 327 327 328 327 327 328 327 327 326 326 326 326 326 326 326 326 326 325 325 324 324 324 324 324 324 324 325
316 316 317 317 317 317 318 318 319 320 320 321 322 322 323 323 323 322 322 323 323 323 323 323 323 324 324 325 324 325 325 325 325 325 325 325 326 326 327 326 327 326 326 326 326 326 327 327 326 324 324 324 324 324 324 326 325 325 325 325 325 324 324 323 324 324 324 324 324
315 316 316 317 317 318 318 318 319 320 321 320 321 321 321 322 321 322 322 323 322 322 322 322 323 323 323 323 323 323 323 322 323 324 324 324 325 326 326 325 326 326 326 326 326 326 326 326 325 324 324 324 324 324 324 324 325 325 325 325 325 324 324 323 324 323 323 323 324
314 315 316 317 317 318 318 319 319 320 320 320 319 319 319 320 320 321 321 320 320 321 321 322 322 322 322 322 322 323 323 322 320 321 323 324 324 324 325 325 325 325 325 325 325 325 325 325 324 324 324 324 324 324 324 325 325 325 325 325 324 324 324 323 323 323 323 323 324
313 315 316 316 317 318 318 319 320 320 320 319 318 317 318 317 318 318 319 319 319 320 320 318 318 318 318 320 321 321 322 322 321 321 322 322 322 323 323 324 323 323 323 323 324 324 324 324 324 324 324 324 324 325 325 325 325 325 324 324 324 324 324 323 323 323 324 323 323
313 314 314 315 316 317 317 318 318 318 318 317 316 317 317 317 317 317 317 317 318 317 316 313 314 315 316 318 318 318 319 320 320 320 320 320 321 321 321 321 322 322 322 322 323 323 324 324 323 322 321 320 322 324 325 325 324 324 324 323 323 323 324 324 323 323 323 324 323
311 312 313 313 314 314 315 316 316 316 315 314 315 316 317 317 316 316 315 315 314 314 313 312 313 314 315 315 315 315 316 317 317 318 318 318 319 319 320 320 320 321 321 321 322 322 322 322 322 322 321 321 322 322 323 324 324 324 323 323 323 323 324 325 325 324 323 323 323
308 309 310 310 311 311 312 313 313 313 313 313 314 315 315 315 314 313 312 312 311 311 311 311 312 312 313 313 314 314 314 315 315 316 317 317 317 317 318 318 318 319 320 320 320 321 321 321 321 321 321 321 321 322 323 323 323 324 323 323 322 323 323 323 324 323 323 323 322
306 306 307 307 308 308 309 309 310 311 311 312 312 312 311 308 309 310 311 310 309 309 309 310 311 311 312 312 313 313 314 314 315 315 316 316 316 316 317 317 317 318 318 319 319 320 320 320 320 320 320 321 321 321 322 323 323 323 323 322 322 322 323 323 323 323 323 322 322
305 305 305 305 305 305 305 306 306 307 308 309 309 309 308 305 307 308 308 307 307 307 308 309 309 310 310 311 312 313 313 314 314 314 315 315 315 315 316 317 317 317 317 318 319 319 319 319 319 319 320 320 321 321 321 322 323 322 322 322 322 321 322 322 322 322 322 322 321
304 303 303 304 303 303 303 304 304 304 305 307 307 306 306 306 305 304 304 304 305 306 306 306 306 308 309 310 310 310 310 311 312 313 313 314 315 315 315 316 316 317 317 318 318 318 318 318 318 319 319 320 320 320 321 322 322 322 321 321 321 321 321 321 322 322 321 322 321
302 302 302 301 301 301 302 303 303 304 304 305 305 305 304 303 302 301 302 303 305 305 304 303 303 304 306 307 308 308 308 308 309 310 311 312 313 313 314 314 315 315 316 316 317 317 317 318 318 319 319 320 320 320 321 321 321 321 321 320 321 320 320 321 321 321 321 321 320
300 300 300 299 300 301 302 303 303 303 303 304 304 303 302 301 299 300 302 304 305 304 303 301 301 301 303 304 305 306 306 306 307 308 309 309 310 310 311 311 311 312 312 313 313 314 315 316 317 317 318 318 319 320 320 321 320 321 320 320 320 320 320 321 321 321 320 320 320
299 299 299 299 300 301 302 303 303 303 303 303 302 301 300 300 298 299 301 304 303 303 302 302 301 300 299 300 301 302 303 305 305 307 307 307 307 308 308 308 308 308 309 310 310 311 312 313 314 315 316 317 317 318 319 319 320 320 320 319 319 320 320 321 321 321 320 320 320
298 298 299 299 300 301 302 303 302 302 302 302 301 300 299 299 298 299 300 302 302 302 302 302 301 300 299 298 299 301 302 303 304 305 305 305 305 305 305 305 305 306 307 308 309 309 310 311 312 313 314 315 316 316 317 318 318 318 319 319 319 320 320 319 319 319 319 319 319
298 298 299 299 301 301 302 302 301 301 301 300 299 299 299 298 298 298 298 300 301 301 302 301 301 300 299 298 298 300 301 302 303 303 303 303 302 302 302 302 302 303 304 306 307 308 308 308 309 310 311 313 313 314 315 316 316 317 317 317 316 316 315 313 314 314 314 314 313
298 299 299 300 301 301 301 301 301 300 300 299 298 298 298 297 297 297 297 298 300 301 300 300 299 299 299 298 299 299 300 301 301 301 301 300 300 300 300 299 299 300 302 304 305 306 306 306 306 307 308 310 311 311 311 312 312 311 311 311 310 310 309 307 308 308 308 308 307
298 298 299 300 300 300 300 300 299 299 298 298 297 297 296 297 297 297 297 297 298 299 299 298 298 297 297 297 297 297 297 299 298 298 297 298 298 298 298 298 298 298 300 302 303 303 304 304 304 304 305 307 307 307 307 308 307 306 306 306 306 306 305 305 305 305 305 305 304
298 298 298 299 299 299 298 298 298 297 297 296 296 296 295 295 296 297 297 296 296 297 298 297 297 296 295 295 295 295 296 297 297 296 297 297 297 298 297 298 298 298 299 300 300 301 301 302 302 302 303 304 304 305 305 305 304 304 304 304 304 304 304 303 303 303 303 304 304
298 298 298 297 297 297 297 296 296 295 295 295 295 295 295 295 295 296 296 295 295 296 296 296 296 295 295 295 295 296 296 296 297 297 297 298 298 298 298 298 298 299 299 299 300 300 300 301 301 301 302 302 303 303 303 304 304 304 303 303 303 303 303 303 303 303 303 303 302
298 297 295 294 294 294 294 294 294 294 294 294 294 294 294 294 295 295 295 295 296 296 296 296 296 296 296 296 296 296 296 297 298 298 298 298 298 298 298 299 299 300 300 300 300 300 301 301 301 301 302 302 302 302 302 303 304 304 303 302 302 302 302 302 302 302 302 302 302
295 294 293 292 292 292 292 292 292 293 293 293 293 293 294 294 294 294 295 295 295 296 296 296 296 296 297 297 297 297 297 298 298 298 299 299 299 299 299 300 300 300 300 300 300 300 300 301 301 301 301 302 301 301 301 302 302 303 303 302 302 302 301 302 302 302 302 302 302
293 292 292 292 291 291 291 292 292 292 292 292 292 293 293 293 294 294 294 295 295 295 295 295 295 296 296 297 297 298 298 298 298 298 298 298 299 299 299 300 299 299 299 298 298 298 298 299 299 299 300 300 300 300 300 300 301 302 302 301 301 301 301 301 301 301 301 301 301
291 291 292 292 291 291 291 291 292 292 292 292 292 293 293 293 294 294 294 294 294 294 294 294 294 294 295 295 296 296 297 297 297 297 297 298 298 299 299 299 298 298 297 296 294 293 293 294 297 298 299 299 299 299 300 300 300 300 300 301 300 300 300 300 300 300 300 299 299
291 291 292 291 291 290 290 291 291 291 291 291 292 292 292 293 293 294 294 294 294 293 293 293 293 293 293 294 294 294 295 295 296 296 296 296 297 297 298 298 298 298 296 292 293 294 295 295 294 295 296 300 299 299 299 299 298 299 299 299 299 299 299 299 299 298 298 298 297
291 291 291 291 291 290 290 290 290 290 290 291 291 291 292 292 293 293 293 293 293 293 293 293 292 292 292 293 293 293 293 293 294 294 295 295 295 296 296 297 297 297 296 291 293 295 296 296 294 293 294 298 299 299 298 298 298 298 298 298 298 298 297 297 297 296 296 296 296
291 291 291 291 290 290 289 289 289 289 289 290 290 290 291 291 291 292 291 291 291 291 291 291 291 291 292 292 292 292 293 293 293 293 294 294 295 295 295 296 296 295 294 293 294 295 296 296 295 294 293 293 297 298 297 297 297 297 297 297 296 296 296 296 295 295 294 294 295
291 291 291 291 290 289 289 289 289 288 288 289 289 289 289 289 290 291 291 291 291 291 291 291 291 292 292 293 293 293 293 293 293 293 293 294 294 294 295 295 295 294 294 294 294 295 295 296 296 295 294 294 296 296 296 296 296 296 296 296 296 295 295 295 295 294 294 295 295
290 290 290 290 289 288 288 288 288 287 287 288 288 287 287 288 289 290 291 291 291 291 291 291 292 292 293 293 293 293 293 293 293 293 293 294 293 294 294 294 295 294 294 294 295 295 295 295 295 295 295 295 295 295 296 296 296 295 295 295 295 295 294 294 294 294 294 295 294
289 290 290 290 289 288 287 286 286 286 286 286 286 286 287 288 289 290 290 290 290 290 291 291 292 292 293 293 293 293 293 293 293 293 293 293 293 293 294 295 295 294 293 294 294 294 294 294 294 294 294 293 293 294 296 295 296 296 296 296 295 294 294 294 294 294 294 294 294
289 290 290 290 289 287 286 284 284 284 285 285 285 286 287 289 289 289 289 289 289 290 291 292 292 292 292 293 292 292 292 292 292 292 293 293 293 294 294 294 294 293 292 293 293 293 294 293 293 293 293 292 291 292 294 293 294 294 295 295 294 294 294 293 294 294 294 293 293
289 290 290 290 288 287 285 284 284 285 285 285 285 286 286 288 288 288 288 288 289 290 291 291 291 291 292 292 291 291 291 290 290 290 291 292 292 293 293 293 293 292 292 292 293 293 293 293 293 293 292 291 291 291 292 293 293 294 293 293 293 293 293 293 293 293 293 293 293
290 290 289 288 287 286 285 284 285 285 285 285 285 285 286 287 287 287 287 288 289 290 290 291 290 291 291 291 290 290 289 289 289 289 290 291 292 292 292 292 292 292 292 292 292 292 292 293 293 292 291 288 289 290 292 292 293 293 293 293 293 293 293 293 293 293 293 293 293
289 289 288 287 286 285 285 284 285 285 285 285 285 285 286 287 287 287 287 287 288 289 289 289 289 289 289 289 289 288 288 288 288 288 289 290 291 291 291 291 291 291 291 291 292 292 292 292 292 292 291 290 290 291 292 292 292 292 292 292 292 292 292 292 292 292 292 292 292
289 288 287 286 285 285 285 284 285 285 285 285 285 286 287 287 287 287 287 287 288 288 288 288 288 288 288 287 287 287 287 287 287 287 287 288 289 290 290 290 289 289 290 291 291 292 292 292 292 292 291 291 292 292 292 291 291 291 291 292 292 292 292 292 292 292 291 291 291
288 287 286 285 285 285 285 285 285 285 285 285 286 286 286 287 287 287 287 287 288 288 288 288 288 288 287 287 286 286 286 287 286 286 285 286 288 288 289 289 289 289 289 290 291 291 292 292 291 291 291 291 291 291 291 291 291 291 291 291 292 291 291 292 291 291 291 291 290
288 287 286 285 285 285 285 285 285 285 285 285 286 287 287 286 286 287 287 288 288 288 288 288 287 287 286 286 286 285 285 286 286 285 285 285 286 287 288 288 288 288 288 289 290 290 291 291 291 291 291 290 291 291 291 291 291 291 291 291 291 291 291 291 291 291 291 291 289
287 286 286 285 285 285 285 285 285 285 285 286 286 287 287 287 287 287 287 288 288 288 288 287 286 286 286 286 286 285 285 285 285 285 284 284 284 285 286 287 287 286 287 288 289 289 290 290 290 290 290 290 291 291 291 291 290 290 290 290 290 291 291 291 291 291 291 291 287
286 286 285 285 285 285 285 285 285 285 286 286 286 286 286 287 287 287 287 288 288 288 287 286 286 285 285 286 286 286 285 285 285 285 284 284 284 285 285 286 286 286 286 287 288 289 289 289 289 289 290 289 290 291 290 290 290 290 289 289 289 290 290 291 291 291 291 291 289
285 285 285 285 285 285 285 284 285 286 286 286 286 286 286 286 287 287 287 288 288 287 287 286 285 285 286 286 287 286 286 286 286 285 285 284 284 284 285 285 286 286 286 287 287 288 288 289 289 289 289 289 290 290 290 290 289 289 289 289 289 289 289 290 290 290 290 290 291
Wind_Speed
12 11 10 9 8 8 8 8 7 7 7 8 8 7 7 7 7 7 6 6 6 6 6 6 6 6 7 9 9 10 11 11 12 12 12 12 12 13 13 13 12 12 12 12 12 11 10 10 9 8 7 7 8 8 8 8 9 9 9 9 9 9 10 11 11 12 12 13 10
13 12 11 9 8 7 7 7 7 7 7 7 7 7 7 7 7 7 7 7 6 6 5 5 6 6 7 9 9 10 11 11 12 12 12 13 13 13 13 12 12 13 12 12 12 10 9 10 9 8 7 7 7 8 8 8 8 9 10 11 9 8 8 9 10 11 12 12 11
11 11 11 10 9 9 8 8 8 8 9 8 7 7 7 7 7 7 7 7 6 6 6 5 5 6 8 9 9 9 10 11 11 12 12 12 13 13 13 12 13 13 12 12 12 10 9 9 8 7 7 6 7 7 8 8 8 9 9 11 9 8 7 7 8 9 9 9 10
11 11 11 12 12 12 10 8 9 9 9 8 7 7 7 6 6 6 6 6 6 6 6 6 6 6 7 8 9 9 10 10 11 12 12 12 12 13 13 13 13 12 12 12 12 11 10 9 8 7 7 7 8 8 7 7 8 8 8 8 8 8 7 7 7 7 7 7 9
11 11 11 11 13 13 11 10 10 9 8 6 6 6 6 5 5 5 5 6 6 6 6 7 6 6 6 8 9 10 10 10 10 10 10 11 11 12 12 12 12 12 11 11 11 11 10 10 7 6 7 7 7 7 7 8 8 8 8 7 7 7 7 7 7 6 6 6 7
10 11 11 11 12 12 11 10 10 9 7 5 6 6 6 5 5 6 6 6 6 6 6 6 5 5 6 7 8 8 9 9 9 9 9 10 10 10 11 11 11 11 10 10 10 10 10 9 7 6 6 7 7 7 8 9 9 8 8 7 7 7 7 7 7 7 6 7 8
10 10 10 10 11 10 9 9 8 7 6 6 7 9 9 7 7 7 7 6 6 5 5 4 5 5 6 6 7 7 7 7 8 8 9 9 9 9 9 9 10 10 9 9 9 9 9 9 7 6 6 6 6 7 8 9 9 8 8 8 7 7 7 7 7 6 7 9 10
8 8 9 9 9 9 9 9 7 7 6 6 8 9 10 9 8 8 7 6 5 5 4 4 5 6 6 6 7 7 7 8 7 8 8 8 8 8 8 8 8 9 9 9 9 9 8 8 7 7 6 6 6 6 8 9 9 9 9 9 8 7 6 6 6 6 7 10 11
6 7 7 7 7 8 8 8 7 7 7 8 8 9 9 8 8 7 6 5 5 4 4 4 5 6 7 7 7 7 7 7 8 8 8 8 8 8 8 8 8 8 8 8 9 9 9 7 7 7 6 6 6 6 7 8 10 10 10 10 9 8 7 7 7 8 9 10 11
7 6 6 6 7 7 6 6 7 7 8 8 8 7 6 5 5 5 5 4 3 3 3 4 4 5 6 7 7 7 7 7 7 7 8 8 8 8 8 8 8 8 8 8 8 8 8 7 7 7 7 7 7 8 8 8 10 10 10 8 8 9 9 8 9 9 9 9 10
7 7 6 6 6 6 5 6 6 6 6 6 6 5 5 4 4 4 3 2 2 3 3 3 3 4 5 6 6 6 6 5 6 6 7 7 7 8 8 7 8 8 8 7 7 7 7 7 8 8 9 8 8 9 9 9 10 11 11 9 9 10 10 10 9 9 9 9 10
7 6 6 5 5 5 5 5 5 5 5 5 5 5 4 4 3 2 2 2 3 3 3 2 2 3 4 4 4 4 4 4 4 5 5 6 6 6 6 7 7 7 7 7 7 6 6 7 8 9 9 9 8 8 8 10 10 11 11 11 10 10 10 10 10 9 8 8 10
5 4 4 4 4 4 5 5 5 4 5 5 5 4 4 3 3 3 3 4 4 3 3 2 2 2 3 3 3 3 3 3 4 4 4 4 5 5 5 5 5 5 5 6 5 5 6 7 8 8 9 9 8 8 8 9 10 10 11 11 11 11 10 11 10 9 9 9 9
4 3 3 3 4 5 5 5 4 4 4 5 4 4 3 3 3 3 4 4 4 4 3 3 2 2 2 2 2 2 3 3 4 4 4 3 3 4 4 4 4 4 4 4 4 4 5 6 7 7 8 9 9 8 8 9 9 10 10 10 10 11 11 10 10 10 9 10 10
4 3 3 3 4 5 5 5 4 4 4 4 4 3 3 3 3 3 3 4 4 4 4 4 3 3 2 2 2 2 3 3 4 4 4 4 3 3 3 3 3 3 3 3 4 4 5 6 6 7 7 8 8 8 8 8 8 9 9 9 10 10 10 10 10 9 9 10 10
4 3 3 4 4 5 5 5 3 3 4 4 3 3 3 3 3 3 3 4 4 4 4 4 4 4 3 2 2 3 3 3 4 4 4 4 4 3 3 3 3 3 3 3 4 4 4 5 5 6 6 7 7 7 7 8 8 8 8 9 9 8 8 8 7 7 7 7 7
4 4 3 4 5 5 5 4 3 3 3 3 3 3 3 3 3 3 3 3 4 4 4 4 4 4 3 3 2 3 3 3 3 3 4 4 4 4 3 3 3 3 3 3 3 3 3 3 3 3 4 5 5 5 5 5 5 5 5 5 5 4 3 2 2 3 3 2 2
4 4 4 4 5 5 4 4 3 3 3 3 3 3 2 2 2 2 2 2 3 4 4 4 3 3 3 3 3 2 2 3 3 3 3 4 4 4 3 3 3 2 2 2 3 3 3 2 2 1 2 3 2 2 2 2 2 1 1 0 1 1 2 3 2 2 2 2 2
5 4 4 4 4 4 3 3 3 3 3 3 3 3 3 2 2 2 2 2 2 3 4 4 3 3 3 3 3 2 2 3 3 4 4 4 4 4 4 4 3 3 2 2 2 2 2 2 2 1 1 1 2 2 1 1 1 1 2 2 3 3 3 3 3 3 3 3 2
5 5 4 4 3 3 3 2 3 3 3 3 3 3 3 3 2 3 3 3 3 3 4 4 4 4 3 3 3 3 3 3 4 4 4 4 4 4 4 4 4 3 3 3 3 3 3 3 3 3 2 2 2 3 3 2 2 2 2 2 3 3 3 3 3 3 3 3 3
6 5 4 3 2 2 2 2 3 3 4 4 4 4 3 3 3 3 3 3 3 4 4 4 4 4 4 4 4 4 4 3 4 4 4 4 4 4 4 4 4 4 4 3 4 4 4 3 3 3 3 3 3 3 3 2 3 3 3 3 3 3 3 3 3 3 3 3 2
5 4 3 3 2 2 2 2 3 3 4 4 4 4 4 3 3 3 3 3 4 4 4 4 4 4 4 4 4 4 4 4 4 4 4 4 4 4 4 4 4 4 4 4 4 4 4 4 4 3 3 3 3 3 2 2 2 3 3 3 3 3 3 3 2 2 2 2 1
4 4 3 3 3 3 3 3 3 4 4 4 4 4 4 3 3 3 3 3 3 4 4 4 3 4 4 4 4 4 4 4 4 4 4 4 4 4 4 4 4 4 4 4 4 3 3 3 3 3 3 3 3 3 3 2 2 2 2 2 2 2 2 1 1 1 1 1 0
4 4 3 3 3 3 3 3 4 4 4 5 5 4 4 3 3 3 3 3 3 3 3 3 3 3 3 3 3 4 4 5 5 4 4 4 4 4 4 3 4 4 3 3 2 2 2 2 3 3 3 3 3 3 2 2 2 2 2 2 2 2 1 1 0 0 1 1 1
4 4 4 4 4 4 4 4 4 5 5 5 5 4 4 3 3 3 3 3 3 3 3 3 3 2 2 2 2 3 3 4 4 4 4 4 3 3 3 3 3 3 3 3 2 1 1 1 2 2 3 3 3 3 2 2 2 2 2 2 2 1 1 1 0 0 0 0 0
4 4 4 5 5 5 4 4 5 5 5 5 5 4 4 3 3 3 3 3 3 3 3 3 2 2 2 2 2 2 3 3 3 4 4 4 3 3 3 2 3 3 3 2 2 1 1 1 1 1 2 2 2 2 2 2 2 1 1 1 1 1 1 1 1 0 0 1 1
5 5 5 5 5 5 5 5 5 5 6 6 5 5 4 4 3 3 3 3 3 3 3 2 2 2 1 1 2 2 3 3 3 3 3 3 3 3 3 3 2 2 2 3 3 3 3 2 2 1 1 1 1 2 2 2 2 2 1 1 1 1 0 0 0 1 1 1 2
6 6 5 5 5 5 5 5 6 6 6 6 6 5 5 4 4 4 4 4 3 3 2 2 2 1 1 1 2 3 3 3 3 3 3 3 4 4 3 3 3 3 3 3 3 3 3 3 2 2 1 0 1 1 1 1 2 2 1 1 1 1 1 1 1 1 1 2 2
6 6 6 6 5 5 5 6 6 6 6 6 6 5 5 5 5 5 5 4 4 3 2 2 1 1 1 2 3 3 4 4 4 4 3 3 4 4 4 4 4 4 3 3 3 3 3 3 2 2 2 1 1 1 1 1 1 1 1 1 2 2 2 1 1 1 1 1 1
7 6 6 6 6 6 6 6 6 6 6 5 6 5 5 5 5 5 5 5 4 3 3 2 2 2 3 3 3 4 4 4 4 3 3 3 3 4 4 5 5 5 5 5 6 6 5 5 4 3 3 2 1 1 1 1 1 1 1 2 2 2 1 1 1 1 1 1 1
7 7 7 6 6 6 5 5 5 5 5 5 6 6 6 6 6 6 5 5 4 4 3 3 3 4 4 4 4 4 5 4 4 3 3 3 3 4 5 6 6 6 6 7 7 7 7 7 7 7 6 5 3 2 2 2 1 1 1 1 1 1 1 1 1 1 1 2 2
8 8 7 7 7 6 6 6 6 6 6 6 6 6 6 7 6 6 6 5 5 5 5 5 5 5 5 5 5 5 5 5 4 4 3 2 2 3 4 5 6 6 6 7 7 7 7 8 8 8 7 6 4 4 3 3 2 2 2 1 1 1 1 1 1 1 1 2 2
9 8 8 8 7 7 7 6 6 6 6 6 6 6 7 7 7 7 6 5 5 5 5 5 5 5 6 6 6 6 6 6 5 4 3 2 2 3 4 4 5 5 6 6 6 6 6 7 7 7 7 6 4 3 3 3 2 2 1 1 0 0 1 2 2 2 2 2 2
10 9 9 8 8 8 7 7 6 6 6 6 6 6 7 8 8 7 6 6 5 5 5 5 5 6 6 6 7 7 6 5 4 4 3 2 2 2 3 3 3 5 6 6 5 5 5 5 6 6 5 4 2 2 1 1 1 1 1 1 1 1 2 2 2 2 2 2 2
11 10 10 9 9 8 8 7 7 6 6 6 6 7 7 8 8 8 7 6 6 6 6 5 6 6 6 7 7 7 6 5 4 3 2 2 2 2 3 3 4 5 6 6 5 5 5 5 5 5 4 3 1 1 1 1 1 1 1 2 2 2 2 2 2 2 1 1 1
11 11 11 10 10 9 9 9 8 7 7 7 7 7 8 8 8 8 7 7 7 7 7 6 6 7 7 7 6 6 5 5 4 3 2 2 1 2 2 3 4 6 7 7 5 4 4 4 5 4 4 2 2 1 1 1 1 1 2 2 2 2 2 2 1 1 1 1 1
10 10 10 11 11 10 10 9 9 8 8 7 7 8 8 8 8 7 7 7 7 7 7 7 7 7 7 7 6 6 5 5 4 3 2 2 2 2 2 3 4 5 7 7 6 6 5 4 4 4 3 1 1 2 2 2 2 2 2 3 2 2 2 1 1 1 1 1 1
8 8 9 10 10 10 10 9 9 9 8 8 8 8 8 8 7 7 7 6 7 7 7 7 7 7 7 7 7 6 6 5 4 3 3 3 3 2 3 3 4 5 6 8 7 7 6 5 4 3 2 1 1 2 2 2 2 2 2 2 2 1 1 1 1 1 1 1 2
7 7 8 8 9 10 10 9 9 8 8 8 8 7 7 7 6 6 6 5 6 7 7 8 8 8 8 8 8 7 6 5 5 4 3 3 3 3 3 4 4 5 6 8 7 7 6 5 4 3 1 1 1 1 2 2 2 2 1 1 1 1 1 1 0 1 1 1 2
5 5 6 6 7 8 9 9 8 8 8 8 7 7 7 6 6 6 5 5 6 7 7 8 9 8 8 8 8 8 7 6 5 5 4 3 3 3 4 4 5 5 6 7 7 7 6 6 5 3 2 0 1 1 1 1 1 1 1 0 0 1 1 1 1 1 1 2 1
4 4 5 5 6 7 7 8 8 8 8 7 7 7 6 6 6 6 5 5 6 7 7 8 9 9 9 8 8 8 8 7 6 6 5 4 4 4 4 5 5 5 6 7 7 7 7 6 6 5 3 1 0 0 1 1 1 1 1 1 1 1 1 1 1 1 1 2 2
Wind_Direction
222 222 222 223 223 223 223 224 225 226 228 228 227 225 223 223 225 225 224 223 226 227 228 228 226 224 221 217 214 214 214 216 218 219 220 222 223 223 223 225 226 227 227 228 228 228 228 228 229 231 232 233 235 236 236 235 234 233 232 231 233 233 234 235 236 236 234 234 234
220 221 221 221 221 222 224 224 222 223 224 227 227 226 224 224 226 227 227 226 226 227 229 229 227 225 222 218 215 215 216 218 219 220 221 223 225 226 226 226 226 227 228 229 228 229 229 227 228 230 232 232 233 234 234 234 235 235 235 234 234 234 234 235 237 238 238 237 235
219 219 219 219 219 219 220 222 220 219 220 223 225 226 225 225 226 228 228 227 227 228 228 227 224 222 221 218 216 216 218 220 220 221 221 223 225 226 227 227 227 227 228 229 228 228 228 227 227 229 231 232 232 232 232 232 233 235 236 235 235 234 234 235 235 236 237 237 236
218 217 217 218 217 217 218 220 219 217 216 217 219 221 223 224 225 227 228 228 226 225 225 224 221 219 218 218 217 217 219 221 223 224 224 224 225 226 227 229 229 229 228 229 229 229 229 227 227 229 231 233 233 233 232 230 229 231 234 235 236 235 236 236 233 232 232 233 235
218 216 215 216 216 216 218 220 220 218 214 209 208 211 214 217 219 222 223 222 219 218 219 221 220 218 218 220 220 220 221 222 223 225 227 227 226 227 227 229 230 231 231 231 231 230 229 228 230 231 232 232 233 233 233 231 230 231 233 234 235 236 236 237 235 231 227 227 230
217 216 215 216 215 216 218 221 221 218 211 201 203 207 209 210 211 213 215 217 217 217 216 217 220 220 219 220 221 221 222 222 222 225 228 231 230 229 229 230 232 233 234 234 233 232 231 230 233 235 236 235 236 236 235 233 234 233 234 235 235 235 235 236 236 234 229 224 226
219 216 215 215 214 215 216 217 217 214 208 203 208 211 212 211 211 212 214 217 215 212 208 206 212 215 216 215 217 219 220 221 222 225 228 232 234 234 233 233 234 235 237 239 238 236 234 233 236 238 238 238 238 237 234 234 235 236 236 237 236 236 235 236 237 237 234 232 231
225 220 217 214 214 214 214 213 211 209 208 210 213 215 216 213 212 211 212 212 213 208 203 203 211 214 215 214 216 217 218 219 220 222 223 228 231 233 235 235 235 236 238 239 239 238 236 235 237 239 239 238 239 237 235 233 235 237 239 239 239 237 234 233 235 237 238 238 236
229 223 219 215 214 213 212 209 208 208 210 214 216 216 215 213 210 209 208 210 211 207 204 208 212 214 216 217 219 219 219 219 219 219 219 221 224 226 229 231 231 232 233 234 235 235 235 236 237 238 238 237 239 238 236 232 234 236 239 241 242 240 237 235 234 235 238 239 240
226 220 215 211 210 209 207 205 207 209 212 215 214 211 208 204 206 206 206 205 202 205 210 214 215 216 218 220 221 220 220 220 220 219 218 218 219 221 223 224 225 226 226 226 227 229 231 233 235 237 238 238 239 239 237 233 234 235 237 240 241 241 240 238 235 235 237 239 241
225 216 209 205 200 197 196 197 203 208 211 212 209 202 195 191 198 200 198 181 190 204 212 216 219 221 222 223 222 222 222 223 223 221 219 217 217 217 219 221 222 223 223 222 222 222 224 227 231 234 236 238 239 239 237 234 235 235 237 240 241 242 242 240 238 237 237 238 240
225 215 206 199 189 186 188 194 197 202 205 206 200 194 188 186 182 176 168 163 185 193 195 193 213 222 225 226 224 222 223 226 227 227 225 222 219 218 218 219 221 222 222 222 221 221 223 225 228 231 233 236 237 237 236 234 235 236 238 239 239 240 241 241 239 238 237 237 239
229 214 201 189 180 184 190 195 194 196 199 199 193 185 176 165 159 159 163 169 177 176 167 159 186 209 219 222 217 214 213 213 216 219 221 222 221 220 220 222 223 224 225 226 226 227 229 229 231 233 234 236 238 239 238 236 237 238 239 239 239 239 240 240 239 238 238 237 239
241 222 203 185 183 188 194 196 194 194 193 191 184 174 160 150 153 162 169 170 169 162 155 153 163 177 192 198 199 198 197 197 198 201 204 205 207 209 213 217 219 222 224 226 229 232 236 236 236 238 239 240 242 243 243 241 241 241 241 241 241 241 241 242 240 239 238 237 240
250 233 213 192 191 195 197 195 193 190 187 182 172 161 152 147 152 162 167 163 157 153 152 157 155 154 153 163 171 175 176 177 179 179 179 176 179 184 189 193 197 202 206 208 214 221 227 232 235 238 240 242 243 245 246 246 245 245 244 244 245 245 246 246 244 241 240 240 242
244 235 221 205 202 201 199 194 190 185 179 170 158 152 148 145 148 156 160 157 152 152 155 157 149 142 140 144 154 159 161 161 160 158 157 156 157 160 162 164 170 179 186 189 196 205 213 220 227 232 235 238 242 244 245 246 246 246 246 247 248 250 252 254 254 253 253 253 255
231 228 221 213 209 205 201 191 184 176 168 155 148 145 144 141 146 153 160 161 155 152 150 147 139 137 140 145 153 157 157 155 152 147 144 143 142 143 143 142 146 156 169 176 180 183 189 200 214 224 229 232 236 241 245 249 250 250 251 254 259 266 275 294 293 290 289 297 302
212 216 218 218 215 209 200 186 174 161 151 142 138 135 134 133 139 143 148 151 147 142 138 133 130 133 141 146 152 156 155 151 144 138 134 133 133 133 131 129 131 141 153 158 158 159 161 164 166 189 209 210 213 221 234 249 252 257 264 328 32 39 42 47 46 43 42 45 45
194 201 210 218 215 207 193 174 158 146 136 129 125 122 120 119 128 129 127 119 121 127 130 129 127 130 137 141 142 141 140 137 133 129 128 128 128 127 125 126 128 133 137 134 132 132 132 130 122 124 137 154 147 136 122 109 94 83 81 84 85 81 77 72 70 69 70 72 74
183 189 198 209 210 200 183 159 141 130 124 118 114 111 108 109 114 114 113 110 111 117 124 129 130 131 133 135 134 134 131 129 129 128 128 127 125 125 125 127 128 128 125 119 114 109 104 101 100 98 97 98 107 109 109 108 105 97 89 86 88 91 93 91 89 86 83 79 76
178 180 183 190 197 190 172 148 133 125 120 116 112 108 105 105 105 107 109 113 117 120 124 131 133 136 138 139 137 135 130 126 127 126 124 121 120 119 121 122 121 119 116 112 109 108 106 103 102 102 102 100 101 103 106 117 122 114 103 92 92 95 96 95 96 95 91 85 79
171 166 164 172 183 179 165 144 132 123 116 110 104 101 100 101 102 106 110 115 119 122 124 128 132 137 140 143 139 135 132 128 125 122 120 118 117 116 116 116 116 115 112 110 110 111 112 112 111 113 114 115 110 109 111 123 126 121 115 108 101 96 92 91 91 91 91 92 89
160 156 158 167 171 168 158 145 128 114 104 99 96 97 100 104 108 111 115 119 120 121 120 121 124 129 133 137 138 136 133 129 125 120 116 114 114 114 114 113 110 109 108 108 111 114 118 118 118 119 120 121 117 116 116 121 129 134 134 129 124 116 107 103 86 64 45 20 11
157 160 162 160 161 161 154 142 126 113 107 104 104 107 112 116 120 121 122 121 119 117 114 110 110 114 119 126 131 132 133 130 126 121 117 115 117 118 118 115 106 102 98 96 94 101 111 119 126 129 128 125 122 122 124 130 138 145 151 156 160 164 163 148 80 22 353 341 327
163 164 162 158 159 156 149 137 125 118 114 115 117 121 126 130 131 131 127 123 116 110 106 102 103 104 107 111 116 122 123 124 124 125 124 123 124 126 125 118 111 101 92 80 73 70 85 105 128 134 135 134 133 132 133 134 134 148 161 172 185 191 193 185 165 114 32 28 356
165 165 165 164 160 154 146 135 126 122 121 125 128 132 135 138 136 133 128 123 115 109 105 102 99 95 97 104 110 110 110 111 115 120 123 125 127 129 128 120 111 103 94 71 58 71 93 108 112 122 133 138 140 142 140 136 136 146 165 177 191 200 207 213 203 150 25 16 344
167 169 169 167 160 152 143 135 129 127 129 135 139 141 143 142 138 133 128 121 114 107 101 98 96 95 98 108 112 110 108 105 106 108 112 117 122 126 124 113 99 89 78 56 44 50 69 92 105 106 101 119 135 142 145 144 145 149 153 155 165 165 184 254 311 327 338 329 316
170 170 169 167 159 151 143 137 135 136 139 144 146 146 144 142 140 136 131 125 121 116 113 109 115 123 129 121 114 111 106 102 101 102 105 112 119 122 119 110 98 87 74 56 52 53 59 75 113 129 126 69 99 109 117 123 125 127 127 118 107 91 70 34 1 346 335 326 318
171 169 168 167 160 152 146 143 143 144 146 147 146 144 142 141 141 138 136 134 134 136 136 136 148 152 144 125 115 107 100 95 96 99 106 114 119 118 114 110 105 101 96 92 89 78 68 64 106 138 149 140 108 95 101 99 107 111 111 100 85 73 60 39 16 354 334 320 310
170 169 169 166 158 153 149 148 146 146 146 146 145 143 142 141 140 138 137 137 137 139 141 144 150 143 133 124 115 106 99 94 93 97 105 116 120 120 117 114 108 102 94 89 88 81 71 63 70 84 96 92 94 118 128 114 115 119 116 106 91 75 57 33 9 341 318 313 303
171 171 169 163 157 152 148 144 142 143 146 146 148 147 145 141 138 134 132 130 128 129 133 137 134 129 122 114 105 97 91 87 87 90 100 114 121 120 117 111 103 94 83 76 75 73 70 69 68 67 65 58 47 44 50 48 54 75 94 97 89 71 40 9 344 327 320 319 308
173 172 167 160 155 149 145 142 144 147 149 150 150 147 143 138 132 127 123 120 122 126 130 132 126 119 112 103 94 87 81 76 73 71 75 95 112 114 109 102 95 86 77 70 68 66 66 70 72 71 68 63 56 50 45 41 39 43 55 67 62 42 8 335 321 315 311 307 298
175 172 167 159 152 147 145 146 149 151 152 151 148 144 138 132 126 122 120 121 126 128 129 127 119 112 104 97 90 83 78 72 68 65 61 66 88 97 97 92 87 78 71 68 67 65 66 69 73 74 72 66 63 60 60 60 59 61 66 69 77 305 289 290 291 292 290 280 273
175 171 165 157 150 147 147 149 151 152 151 148 145 141 136 132 128 127 127 129 130 128 123 116 110 102 95 89 86 82 78 72 69 65 61 60 68 75 79 76 69 57 54 57 63 68 73 76 80 80 79 70 64 69 79 83 104 146 182 210 222 232 245 255 265 269 269 263 257
175 170 163 156 151 149 149 151 152 152 151 148 145 142 138 134 132 131 131 131 129 123 116 107 102 96 90 84 82 80 79 75 67 57 47 43 57 66 70 66 53 38 33 36 45 61 77 86 89 91 92 91 91 100 116 121 165 197 211 219 218 220 229 242 250 252 250 242 249
175 169 163 156 153 152 152 153 154 154 153 152 149 145 140 134 131 130 131 133 130 125 119 114 108 101 95 89 84 80 77 75 68 51 28 17 37 65 73 68 45 27 20 21 30 46 67 85 92 96 98 103 116 128 135 147 168 191 206 217 212 208 209 228 250 264 264 252 248
176 169 162 157 155 155 155 155 155 155 156 155 151 146 139 133 131 133 136 139 134 129 124 119 111 105 99 94 88 80 74 72 69 56 34 12 21 45 63 63 38 21 13 14 24 36 49 69 84 94 105 130 153 159 160 166 178 191 200 209 205 199 194 212 247 269 273 273 253
176 169 163 158 156 155 155 155 156 156 156 155 150 144 138 135 135 139 144 145 138 132 125 117 110 104 100 96 91 83 74 69 67 62 48 29 19 26 42 52 35 19 11 12 23 31 39 48 63 76 93 182 186 181 174 178 182 188 196 205 210 203 197 200 258 277 278 280 237
173 169 164 158 155 154 154 154 154 154 152 149 144 141 138 137 137 140 144 142 134 126 120 112 106 103 100 98 94 88 80 73 69 64 57 44 26 22 30 46 38 24 15 14 24 30 35 38 45 56 73 230 208 190 181 183 179 181 185 197 221 231 230 205 274 297 298 297 219
164 162 160 156 153 152 150 150 149 148 146 143 139 138 136 135 134 136 135 130 121 115 109 103 101 100 99 98 96 93 89 84 78 73 66 57 43 35 36 45 42 33 23 20 27 32 35 34 35 39 44 261 216 193 179 181 173 165 161 165 266 283 281 288 315 310 306 309 241
145 147 150 151 150 148 147 145 143 142 138 136 134 133 131 129 129 130 128 120 113 107 102 99 99 99 99 100 99 97 96 92 85 78 71 64 56 48 45 47 45 39 32 27 30 33 36 35 33 34 34 16 328 176 155 153 135 92 48 13 346 325 313 316 318 313 308 313 311